User: anonymous   Login
Location: Unspecified
(0.0000°N, 0.0000°E)
Time: 21:17:35
(UTC+02:00)
Language:

Orbus 21S - Orbit

View from above orbital plane
View from above orbital plane
View from above satellite
View from above satellite

Ground track
Ground track

The orbit data is extracted from the following two-line orbital elements,

1 20669U 90056C   16204.23664886 -.00000330  00000-0 -75989-5 0  9990
2 20669  24.1322 225.6517 7094946 144.7566 294.6370  2.47486185219232
Epoch (UTC): 22 July 2016 05:40:46
Eccentricity: 0.7094946
inclination: 24.1322°
perigee height: 329 km
apogee height: 33088 km
right ascension of ascending node: 225.6517°
argument of perigee: 144.7566°
revolutions per day: 2.47486185
mean anomaly at epoch: 294.6370°
orbit number at epoch: 21923

The dashed part of the orbit path shows where the satellite is in the earth's shadow,  

DLR